| time (UTC) | temp F | wind direction | speed knots | gust knots | rain 1hr in | rain 24hr in | rain mn in | humidity % | barometer mb |
| 20260505181223 | 56 | 262 | 0.0 | 0.9 | 0.00 | 0.55 | 0.11 | 77 | 1007.7 |
| 20260505180722 | 56 | 262 | 0.0 | 0.9 | 0.00 | 0.55 | 0.11 | 76 | 1007.7 |
| 20260505180240 | 57 | 262 | 0.0 | 0.9 | 0.00 | 0.55 | 0.11 | 75 | 1007.6 |
| 20260505175732 | 57 | 262 | 0.0 | 3.5 | 0.00 | 0.55 | 0.11 | 75 | 1007.5 |
| 20260505175228 | 57 | 262 | 0.9 | 3.5 | 0.00 | 0.55 | 0.11 | 74 | 1007.6 |
| 20260505174755 | 57 | 259 | 0.0 | 3.5 | 0.00 | 0.55 | 0.11 | 74 | 1007.5 |
| 20260505174300 | 57 | 264 | 0.9 | 7.0 | 0.00 | 0.55 | 0.11 | 74 | 1007.5 |
| 20260505173739 | 58 | 268 | 3.5 | 7.0 | 0.00 | 0.55 | 0.11 | 74 | 1007.6 |
| 20260505173301 | 58 | 266 | 3.5 | 6.1 | 0.00 | 0.55 | 0.11 | 75 | 1007.5 |
| 20260505172739 | 59 | 248 | 0.0 | 1.7 | 0.00 | 0.55 | 0.11 | 76 | 1007.5 |
| 20260505172244 | 60 | 263 | 0.0 | 1.7 | 0.00 | 0.55 | 0.11 | 76 | 1007.5 |
| 20260505171743 | 60 | 252 | 0.0 | 1.7 | 0.00 | 0.55 | 0.11 | 75 | 1007.5 |
| 20260505171247 | 60 | 262 | 0.0 | 1.7 | 0.00 | 0.55 | 0.11 | 75 | 1007.7 |
| 20260505170746 | 61 | 250 | 0.0 | 0.0 | 0.00 | 0.55 | 0.11 | 76 | 1007.6 |
| 20260505170243 | 60 | 236 | 0.0 | 1.7 | 0.00 | 0.55 | 0.11 | 77 | 1007.7 |
| 20260505165728 | 59 | 255 | 0.0 | 1.7 | 0.00 | 0.55 | 0.11 | 78 | 1007.7 |
| 20260505165227 | 59 | 224 | 0.9 | 2.6 | 0.00 | 0.55 | 0.11 | 79 | 1007.8 |
| 20260505164733 | 59 | 246 | 1.7 | 5.2 | 0.00 | 0.55 | 0.11 | 78 | 1007.9 |
| 20260505164300 | 59 | 244 | 1.7 | 7.8 | 0.00 | 0.55 | 0.11 | 78 | 1007.8 |
| 20260505163738 | 59 | 234 | 3.5 | 7.8 | 0.00 | 0.55 | 0.11 | 77 | 1007.9 |
| 20260505163238 | 59 | 221 | 3.5 | 7.0 | 0.00 | 0.55 | 0.11 | 77 | 1007.8 |
| 20260505162741 | 59 | 212 | 4.3 | 7.8 | 0.00 | 0.55 | 0.11 | 76 | 1007.8 |
| 20260505162240 | 59 | 187 | 5.2 | 8.7 | 0.00 | 0.55 | 0.11 | 76 | 1008.0 |
| 20260505161807 | 59 | 224 | 5.2 | 9.6 | 0.00 | 0.55 | 0.11 | 75 | 1007.9 |
| 20260505161225 | 59 | 226 | 3.5 | 9.6 | 0.00 | 0.55 | 0.11 | 76 | 1007.8 |
| 20260505160724 | 59 | 204 | 5.2 | 11.3 | 0.00 | 0.55 | 0.11 | 76 | 1007.7 |
| 20260505160242 | 59 | 191 | 5.2 | 11.3 | 0.00 | 0.63 | 0.11 | 75 | 1007.6 |
| 20260505153242 | 59 | 244 | 6.1 | 12.2 | 0.00 | 0.63 | 0.11 | 75 | 1007.7 |
| 20260505152721 | 59 | 251 | 7.0 | 12.2 | 0.00 | 0.63 | 0.11 | 75 | 1007.7 |
| 20260505152240 | 60 | 258 | 8.7 | 12.2 | 0.00 | 0.63 | 0.11 | 74 | 1007.6 |
| 20260505151746 | 60 | 217 | 7.0 | 10.4 | 0.00 | 0.63 | 0.11 | 75 | 1007.5 |
| 20260505151246 | 60 | 216 | 6.1 | 10.4 | 0.00 | 0.63 | 0.11 | 76 | 1007.4 |
| 20260505150725 | 60 | 250 | 5.2 | 11.3 | 0.00 | 0.63 | 0.11 | 75 | 1007.5 |
| 20260505150242 | 60 | 183 | 4.3 | 11.3 | 0.00 | 0.71 | 0.11 | 77 | 1007.5 |
| 20260505140246 | 57 | 240 | 5.2 | 7.8 | 0.00 | 0.71 | 0.11 | 81 | 1007.6 |
| 20260505130302 | 60 | 236 | 4.3 | 8.7 | 0.00 | 0.71 | 0.11 | 76 | 1007.9 |
| 20260505124737 | 61 | 244 | 5.2 | 7.8 | 0.00 | 0.71 | 0.11 | 75 | 1007.8 |
| 20260505124237 | 61 | 177 | 3.5 | 7.8 | 0.00 | 0.71 | 0.11 | 74 | 1007.9 |
| 20260505123735 | 61 | 246 | 5.2 | 7.0 | 0.00 | 0.71 | 0.11 | 76 | 1007.7 |
| 20260505123242 | 61 | 254 | 2.6 | 7.0 | 0.00 | 0.71 | 0.11 | 79 | 1007.7 |
| 20260505122721 | 61 | 215 | 3.5 | 7.0 | 0.00 | 0.71 | 0.11 | 76 | 1007.7 |
| 20260505122248 | 61 | 186 | 2.6 | 7.0 | 0.00 | 0.71 | 0.11 | 77 | 1007.8 |
| 20260505121748 | 61 | 240 | 2.6 | 6.1 | 0.00 | 0.71 | 0.11 | 80 | 1007.8 |
| 20260505121225 | 60 | 240 | 1.7 | 6.1 | 0.00 | 0.71 | 0.11 | 81 | 1007.8 |
| 20260505120732 | 59 | 226 | 4.3 | 7.0 | 0.00 | 0.71 | 0.11 | 82 | 1007.8 |
| 20260505120242 | 59 | 239 | 3.5 | 7.0 | 0.00 | 0.71 | 0.11 | 82 | 1007.8 |
| 20260505115735 | 59 | 218 | 1.7 | 5.2 | 0.00 | 0.71 | 0.11 | 81 | 1007.8 |
| 20260505115234 | 59 | 221 | 2.6 | 6.1 | 0.00 | 0.71 | 0.11 | 81 | 1007.8 |
| 20260505114734 | 60 | 200 | 1.7 | 5.2 | 0.00 | 0.71 | 0.11 | 80 | 1007.8 |
| 20260505114240 | 60 | 246 | 2.6 | 5.2 | 0.00 | 0.71 | 0.11 | 81 | 1007.8 |
| 20260505113739 | 60 | 234 | 2.6 | 4.3 | 0.00 | 0.71 | 0.11 | 82 | 1007.8 |
| 20260505113238 | 59 | 248 | 1.7 | 4.3 | 0.00 | 0.71 | 0.11 | 81 | 1007.9 |
| 20260505112745 | 59 | 217 | 2.6 | 6.1 | 0.00 | 0.71 | 0.11 | 83 | 1007.9 |
| 20260505112223 | 59 | 256 | 4.3 | 6.1 | 0.00 | 0.71 | 0.11 | 82 | 1007.9 |
| 20260505111724 | 59 | 224 | 1.7 | 5.2 | 0.00 | 0.71 | 0.11 | 82 | 1007.9 |
| 20260505111240 | 59 | 181 | 2.6 | 6.1 | 0.00 | 0.71 | 0.11 | 84 | 1007.9 |
| 20260505110747 | 58 | 238 | 3.5 | 6.1 | 0.00 | 0.71 | 0.11 | 83 | 1007.9 |
| 20260505110234 | 58 | 225 | 1.7 | 5.2 | 0.00 | 0.71 | 0.11 | 84 | 1007.9 |
| 20260505101731 | 57 | 197 | 0.0 | 0.0 | 0.04 | 0.71 | 0.11 | 87 | 1008.0 |
| 20260505101229 | 57 | 166 | 0.0 | 0.0 | 0.04 | 0.71 | 0.11 | 88 | 1008.1 |
| 20260505100735 | 58 | 162 | 0.0 | 0.0 | 0.04 | 0.71 | 0.11 | 87 | 1008.0 |
| 20260505100254 | 57 | 192 | 0.0 | 0.0 | 0.04 | 0.71 | 0.11 | 89 | 1007.9 |
| 20260505095738 | 57 | 193 | 0.0 | 0.0 | 0.04 | 0.71 | 0.11 | 90 | 1008.1 |
| 20260505095245 | 56 | 193 | 0.0 | 0.0 | 0.04 | 0.71 | 0.11 | 90 | 1008.0 |
| 20260505094723 | 56 | 193 | 0.0 | 0.0 | 0.00 | 0.67 | 0.10 | 90 | 1008.1 |
| 20260505094229 | 55 | 193 | 0.0 | 0.0 | 0.00 | 0.67 | 0.10 | 89 | 1008.0 |
| 20260505093727 | 55 | 192 | 0.0 | 0.0 | 0.00 | 0.67 | 0.10 | 89 | 1008.2 |
| 20260505093254 | 55 | 192 | 0.0 | 0.0 | 0.00 | 0.67 | 0.10 | 89 | 1008.0 |
| 20260505092732 | 55 | 192 | 0.0 | 0.0 | 0.00 | 0.67 | 0.10 | 89 | 1008.0 |
| 20260505092238 | 55 | 185 | 0.0 | 0.0 | 0.00 | 0.67 | 0.10 | 89 | 1008.1 |
| 20260505091738 | 55 | 172 | 0.0 | 0.0 | 0.00 | 0.67 | 0.10 | 90 | 1008.0 |
| 20260505091237 | 55 | 172 | 0.0 | 0.0 | 0.00 | 0.67 | 0.10 | 90 | 1008.0 |
| 20260505090725 | 55 | 169 | 0.0 | 0.0 | 0.00 | 0.67 | 0.10 | 90 | 1007.9 |
| 20260505090251 | 55 | 169 | 0.0 | 0.0 | 0.00 | 0.67 | 0.10 | 89 | 1007.9 |
| 20260505085744 | 55 | 169 | 0.0 | 0.0 | 0.00 | 0.67 | 0.10 | 90 | 1008.0 |
| 20260505085223 | 55 | 169 | 0.0 | 0.0 | 0.00 | 0.67 | 0.10 | 90 | 1008.0 |
| 20260505084723 | 55 | 169 | 0.0 | 0.0 | 0.00 | 0.67 | 0.10 | 91 | 1008.0 |
| 20260505084249 | 55 | 167 | 0.0 | 0.0 | 0.00 | 0.67 | 0.10 | 91 | 1007.9 |
| 20260505083728 | 55 | 168 | 0.0 | 0.0 | 0.00 | 0.67 | 0.10 | 91 | 1007.9 |
| 20260505083233 | 55 | 167 | 0.0 | 0.0 | 0.00 | 0.67 | 0.10 | 91 | 1007.9 |
| 20260505082732 | 55 | 166 | 0.0 | 0.0 | 0.00 | 0.67 | 0.10 | 90 | 1008.0 |
| 20260505082231 | 55 | 163 | 0.0 | 0.0 | 0.00 | 0.67 | 0.10 | 90 | 1008.0 |
| 20260505081738 | 55 | 169 | 0.0 | 0.0 | 0.00 | 0.67 | 0.10 | 91 | 1007.9 |
| 20260505081237 | 55 | 169 | 0.0 | 0.0 | 0.00 | 0.67 | 0.10 | 91 | 1008.0 |
| 20260505080736 | 55 | 166 | 0.0 | 0.0 | 0.00 | 0.67 | 0.10 | 91 | 1008.0 |
| 20260505080234 | 55 | 199 | 0.0 | 0.0 | 0.00 | 0.67 | 0.10 | 91 | 1008.1 |
| 20260505075806 | 55 | 199 | 0.0 | 0.0 | 0.00 | 0.67 | 0.10 | 91 | 1008.1 |
| 20260505075224 | 54 | 199 | 0.0 | 0.0 | 0.04 | 0.67 | 0.10 | 90 | 1008.2 |
| 20260505074744 | 54 | 199 | 0.0 | 0.0 | 0.04 | 0.67 | 0.10 | 91 | 1008.2 |
| 20260505074229 | 54 | 199 | 0.0 | 0.0 | 0.08 | 0.67 | 0.10 | 91 | 1008.3 |
| 20260505073757 | 54 | 250 | 0.0 | 0.0 | 0.08 | 0.67 | 0.10 | 92 | 1008.3 |
| 20260505073235 | 54 | 242 | 0.0 | 0.0 | 0.12 | 0.67 | 0.10 | 92 | 1008.4 |
| 20260505072733 | 54 | 223 | 0.0 | 0.0 | 0.16 | 0.67 | 0.10 | 92 | 1008.4 |
| 20260505072301 | 54 | 195 | 0.0 | 0.0 | 0.20 | 0.67 | 0.10 | 93 | 1008.6 |
| 20260505071739 | 53 | 257 | 0.0 | 0.0 | 0.20 | 0.67 | 0.10 | 93 | 1008.5 |
| 20260505071245 | 53 | 257 | 0.0 | 0.0 | 0.24 | 0.67 | 0.10 | 93 | 1008.6 |
| 20260505070723 | 53 | 245 | 0.0 | 0.0 | 0.24 | 0.67 | 0.10 | 93 | 1008.6 |
| 20260505070240 | 53 | 244 | 0.0 | 0.0 | 0.28 | 0.67 | 0.10 | 94 | 1008.7 |
| 20260505065727 | 53 | 229 | 0.0 | 0.0 | 0.31 | 0.67 | 0.10 | 94 | 1008.7 |
| 20260505065253 | 53 | 229 | 0.0 | 0.0 | 0.28 | 0.63 | 0.09 | 94 | 1008.6 |
| 20260505064740 | 52 | 229 | 0.0 | 0.0 | 0.28 | 0.63 | 0.09 | 94 | 1008.7 |
| 20260505064238 | 52 | 229 | 0.0 | 0.0 | 0.28 | 0.59 | 0.09 | 94 | 1008.7 |
| 20260505063805 | 52 | 229 | 0.0 | 0.0 | 0.31 | 0.59 | 0.09 | 94 | 1008.9 |
| 20260505063223 | 52 | 229 | 0.0 | 0.0 | 0.28 | 0.55 | 0.08 | 94 | 1009.0 |
| 20260505062722 | 52 | 217 | 0.0 | 0.0 | 0.24 | 0.51 | 0.07 | 94 | 1009.1 |
| 20260505062221 | 52 | 234 | 0.0 | 0.0 | 0.24 | 0.47 | 0.06 | 94 | 1009.2 |
| 20260505061728 | 52 | 239 | 0.0 | 0.0 | 0.20 | 0.43 | 0.06 | 94 | 1009.3 |
| 20260505061225 | 52 | 254 | 0.0 | 0.0 | 0.20 | 0.43 | 0.06 | 94 | 1009.4 |
| 20260505060725 | 51 | 236 | 0.0 | 0.0 | 0.16 | 0.39 | 0.05 | 94 | 1009.6 |
| 20260505060241 | 51 | 233 | 0.0 | 0.0 | 0.16 | 0.39 | 0.05 | 94 | 1009.5 |
| 20260505055727 | 51 | 231 | 0.0 | 0.0 | 0.12 | 0.35 | 0.04 | 94 | 1009.4 |
| 20260505055230 | 51 | 244 | 0.0 | 0.0 | 0.12 | 0.35 | 0.04 | 94 | 1009.5 |
| 20260505054751 | 51 | 230 | 0.0 | 0.0 | 0.12 | 0.35 | 0.04 | 94 | 1009.4 |
| 20260505054236 | 51 | 245 | 0.0 | 0.0 | 0.08 | 0.31 | 0.03 | 94 | 1009.4 |
| 20260505053736 | 51 | 231 | 0.0 | 0.0 | 0.04 | 0.28 | 0.02 | 94 | 1009.3 |
| 20260505053242 | 51 | 228 | 0.0 | 0.0 | 0.04 | 0.28 | 0.02 | 94 | 1009.4 |
| 20260505052722 | 51 | 207 | 0.0 | 0.0 | 0.04 | 0.28 | 0.02 | 94 | 1009.4 |
| 20260505052221 | 51 | 233 | 0.0 | 0.0 | 0.00 | 0.24 | 0.02 | 94 | 1009.4 |
| 20260505051747 | 51 | 240 | 0.0 | 0.0 | 0.00 | 0.24 | 0.02 | 95 | 1009.5 |
| 20260505051226 | 51 | 1 | 0.0 | 0.0 | 0.00 | 0.24 | 0.02 | 94 | 1009.4 |
| 20260505050726 | 51 | 1 | 0.0 | 0.0 | 0.00 | 0.24 | 0.02 | 95 | 1009.5 |
| 20260505050243 | 51 | 1 | 0.0 | 0.0 | 0.04 | 0.24 | 0.02 | 95 | 1009.5 |
| 20260505041745 | 50 | 251 | 0.0 | 0.0 | 0.04 | 0.24 | 0.02 | 95 | 1009.2 |
| 20260505041243 | 50 | 251 | 0.0 | 0.0 | 0.04 | 0.24 | 0.02 | 95 | 1009.1 |
| 20260505040728 | 50 | 251 | 0.0 | 0.0 | 0.04 | 0.24 | 0.02 | 95 | 1009.2 |
| 20260505040239 | 50 | 250 | 0.0 | 0.0 | 0.04 | 0.20 | 0.01 | 95 | 1009.2 |
| 20260505035753 | 50 | 250 | 0.0 | 0.0 | 0.04 | 0.20 | 0.01 | 95 | 1009.3 |
| 20260505035231 | 50 | 250 | 0.0 | 0.0 | 0.04 | 0.20 | 0.01 | 95 | 1009.2 |
| 20260505034736 | 50 | 251 | 0.0 | 0.0 | 0.04 | 0.20 | 0.01 | 95 | 1009.2 |
| 20260505034304 | 50 | 251 | 0.0 | 0.0 | 0.04 | 0.20 | 0.01 | 94 | 1009.4 |
| 20260505033722 | 50 | 251 | 0.0 | 0.0 | 0.04 | 0.20 | 0.01 | 94 | 1009.2 |
| 20260505033240 | 50 | 251 | 0.0 | 0.0 | 0.04 | 0.20 | 0.01 | 94 | 1009.2 |
| 20260505032747 | 50 | 251 | 0.0 | 0.0 | 0.04 | 0.20 | 0.01 | 94 | 1009.3 |
| 20260505032226 | 50 | 250 | 0.0 | 0.0 | 0.04 | 0.20 | 0.01 | 94 | 1009.2 |
| 20260505031724 | 50 | 251 | 0.0 | 0.0 | 0.04 | 0.20 | 0.01 | 94 | 1009.3 |
| 20260505031229 | 50 | 251 | 0.0 | 0.0 | 0.04 | 0.20 | 0.01 | 94 | 1009.4 |
| 20260505030748 | 50 | 251 | 0.0 | 0.0 | 0.00 | 0.16 | 0.00 | 94 | 1009.4 |
| 20260505030244 | 50 | 250 | 0.0 | 0.0 | 0.00 | 0.16 | 0.00 | 95 | 1009.5 |
| 20260505025738 | 49 | 251 | 0.0 | 0.0 | 0.00 | 0.16 | 0.00 | 94 | 1009.6 |
| 20260505025237 | 49 | 250 | 0.0 | 0.0 | 0.00 | 0.16 | 0.00 | 94 | 1009.7 |
| 20260505024736 | 49 | 251 | 0.0 | 0.0 | 0.00 | 0.16 | 0.00 | 94 | 1009.8 |
| 20260505024243 | 50 | 251 | 0.0 | 0.0 | 0.00 | 0.16 | 0.00 | 95 | 1009.8 |
| 20260505023722 | 49 | 250 | 0.0 | 0.0 | 0.00 | 0.16 | 0.00 | 95 | 1009.9 |
| 20260505023240 | 49 | 250 | 0.0 | 0.0 | 0.00 | 0.16 | 0.00 | 94 | 1009.9 |
| 20260505022746 | 49 | 250 | 0.0 | 0.0 | 0.00 | 0.16 | 0.00 | 94 | 1009.8 |
| 20260505022224 | 49 | 251 | 0.0 | 0.0 | 0.00 | 0.16 | 0.00 | 94 | 1009.9 |
| 20260505021723 | 49 | 251 | 0.0 | 0.0 | 0.00 | 0.16 | 0.00 | 94 | 1009.8 |
| 20260505021226 | 49 | 251 | 0.0 | 0.0 | 0.00 | 0.16 | 0.00 | 94 | 1009.9 |
| 20260505020725 | 49 | 251 | 0.0 | 0.0 | 0.00 | 0.16 | 0.00 | 94 | 1009.9 |
| 20260505020259 | 49 | 251 | 0.0 | 0.0 | 0.00 | 0.16 | 0.00 | 94 | 1010.0 |
| 20260505015724 | 49 | 251 | 0.0 | 0.0 | 0.00 | 0.16 | 0.00 | 94 | 1009.9 |
| 20260505015226 | 49 | 251 | 0.0 | 0.0 | 0.00 | 0.16 | 0.00 | 94 | 1009.9 |
| 20260505014723 | 49 | 250 | 0.0 | 0.0 | 0.00 | 0.16 | 0.00 | 94 | 1009.9 |
| 20260505014226 | 49 | 251 | 0.0 | 0.0 | 0.00 | 0.16 | 0.00 | 94 | 1009.9 |
| 20260505013726 | 49 | 250 | 0.0 | 0.0 | 0.00 | 0.16 | 0.00 | 94 | 1009.9 |
| 20260505013246 | 49 | 251 | 0.0 | 0.0 | 0.00 | 0.16 | 0.00 | 94 | 1009.8 |
| 20260505012725 | 49 | 251 | 0.0 | 0.0 | 0.00 | 0.16 | 0.00 | 94 | 1009.9 |
| 20260505012224 | 49 | 251 | 0.0 | 0.0 | 0.00 | 0.16 | 0.00 | 94 | 1009.9 |
| 20260505011731 | 49 | 250 | 0.0 | 0.0 | 0.00 | 0.16 | 0.00 | 94 | 1009.8 |
| 20260505011250 | 49 | 251 | 0.0 | 0.0 | 0.00 | 0.16 | 0.00 | 94 | 1010.0 |
| 20260505010757 | 49 | 250 | 0.0 | 0.0 | 0.00 | 0.16 | 0.00 | 94 | 1010.0 |
| 20260505010253 | 50 | 250 | 0.0 | 0.0 | 0.00 | 0.16 | 0.00 | 94 | 1010.1 |
| 20260505005738 | 50 | 251 | 0.0 | 0.0 | 0.00 | 0.16 | 0.00 | 94 | 1010.2 |
| 20260505005255 | 50 | 250 | 0.0 | 0.0 | 0.00 | 0.16 | 0.00 | 94 | 1010.3 |
| 20260505004733 | 49 | 251 | 0.0 | 0.0 | 0.00 | 0.16 | 0.00 | 94 | 1010.3 |
| 20260505004236 | 49 | 250 | 0.0 | 0.0 | 0.00 | 0.16 | 0.00 | 94 | 1010.3 |
| 20260505003735 | 50 | 250 | 0.0 | 0.0 | 0.00 | 0.16 | 0.00 | 94 | 1010.4 |
| 20260505003226 | 50 | 250 | 0.0 | 0.0 | 0.00 | 0.16 | 0.00 | 94 | 1010.6 |
| 20260505002732 | 50 | 251 | 0.0 | 0.0 | 0.00 | 0.16 | 0.00 | 94 | 1010.6 |
| 20260505002250 | 50 | 251 | 0.0 | 0.0 | 0.00 | 0.16 | 0.00 | 94 | 1010.8 |
| 20260505001735 | 50 | 251 | 0.0 | 0.0 | 0.00 | 0.16 | 0.00 | 94 | 1010.9 |
| 20260505001235 | 50 | 250 | 0.0 | 0.0 | 0.00 | 0.16 | 0.00 | 94 | 1010.9 |
| 20260505000733 | 50 | 251 | 0.0 | 0.0 | 0.00 | 0.16 | 0.00 | 94 | 1010.9 |
| 20260505000301 | 49 | 251 | 0.0 | 0.0 | 0.00 | 0.16 | 0.00 | 94 | 1010.9 |
| 20260504235727 | 49 | 251 | 0.0 | 0.0 | 0.00 | 0.16 | 0.00 | 94 | 1011.0 |
| 20260504235247 | 49 | 251 | 0.0 | 0.0 | 0.00 | 0.16 | 0.00 | 94 | 1011.0 |
| 20260504234726 | 49 | 251 | 0.0 | 0.0 | 0.00 | 0.16 | 0.00 | 94 | 1011.1 |
| 20260504234248 | 49 | 250 | 0.0 | 0.0 | 0.00 | 0.16 | 0.00 | 94 | 1011.2 |
| 20260504233734 | 49 | 251 | 0.0 | 0.0 | 0.00 | 0.16 | 0.00 | 94 | 1011.2 |
| 20260504233233 | 49 | 250 | 0.0 | 0.0 | 0.00 | 0.16 | 0.00 | 94 | 1011.3 |
| 20260504232739 | 49 | 251 | 0.0 | 0.0 | 0.00 | 0.16 | 0.00 | 94 | 1011.3 |
| 20260504232239 | 49 | 251 | 0.0 | 0.0 | 0.00 | 0.16 | 0.00 | 94 | 1011.2 |
| 20260504231745 | 49 | 251 | 0.0 | 0.0 | 0.00 | 0.16 | 0.00 | 94 | 1011.4 |
| 20260504231243 | 49 | 251 | 0.0 | 0.0 | 0.00 | 0.16 | 0.00 | 94 | 1011.4 |
| 20260504230721 | 49 | 251 | 0.0 | 0.0 | 0.00 | 0.16 | 0.00 | 94 | 1011.4 |
| 20260504230238 | 49 | 250 | 0.0 | 0.0 | 0.00 | 0.16 | 0.00 | 94 | 1011.3 |
| 20260504225724 | 49 | 251 | 0.0 | 0.0 | 0.00 | 0.16 | 0.00 | 94 | 1011.4 |
| 20260504225231 | 49 | 251 | 0.0 | 0.0 | 0.00 | 0.16 | 0.00 | 94 | 1011.6 |
| 20260504224730 | 48 | 251 | 0.0 | 0.0 | 0.00 | 0.16 | 0.00 | 94 | 1011.7 |
| 20260504224229 | 48 | 251 | 0.0 | 0.0 | 0.00 | 0.16 | 0.00 | 94 | 1011.6 |
| 20260504223736 | 48 | 251 | 0.0 | 0.0 | 0.00 | 0.16 | 0.00 | 94 | 1011.7 |
| 20260504223242 | 48 | 250 | 0.0 | 0.0 | 0.00 | 0.16 | 0.00 | 94 | 1011.9 |
| 20260504222721 | 48 | 250 | 0.0 | 0.0 | 0.00 | 0.16 | 0.00 | 94 | 1011.9 |
| 20260504222239 | 48 | 250 | 0.0 | 0.0 | 0.00 | 0.16 | 0.00 | 94 | 1011.7 |
| 20260504221746 | 48 | 250 | 0.0 | 0.0 | 0.00 | 0.16 | 0.00 | 93 | 1011.9 |
| 20260504221224 | 48 | 250 | 0.0 | 0.0 | 0.00 | 0.16 | 0.00 | 93 | 1011.7 |
| 20260504220724 | 48 | 250 | 0.0 | 0.0 | 0.00 | 0.16 | 0.00 | 93 | 1011.9 |
| 20260504220241 | 48 | 250 | 0.0 | 0.0 | 0.00 | 0.16 | 0.03 | 93 | 1011.9 |
| 20260504215727 | 48 | 251 | 0.0 | 0.0 | 0.00 | 0.16 | 0.03 | 93 | 1011.9 |
| 20260504215234 | 48 | 250 | 0.0 | 0.0 | 0.00 | 0.16 | 0.03 | 93 | 1011.9 |
| 20260504214733 | 48 | 251 | 0.0 | 0.0 | 0.00 | 0.16 | 0.03 | 93 | 1011.9 |
| 20260504214232 | 48 | 250 | 0.0 | 0.0 | 0.00 | 0.16 | 0.03 | 92 | 1012.0 |
| 20260504213738 | 48 | 251 | 0.0 | 0.0 | 0.00 | 0.16 | 0.03 | 92 | 1012.1 |
| 20260504213238 | 49 | 251 | 0.0 | 0.0 | 0.00 | 0.16 | 0.03 | 92 | 1012.0 |
| 20260504212737 | 49 | 251 | 0.0 | 0.0 | 0.00 | 0.16 | 0.03 | 92 | 1012.1 |
| 20260504212222 | 49 | 251 | 0.0 | 0.0 | 0.00 | 0.16 | 0.03 | 92 | 1012.1 |
| 20260504211740 | 49 | 251 | 0.0 | 0.0 | 0.00 | 0.16 | 0.03 | 92 | 1012.2 |
| 20260504211247 | 49 | 251 | 0.0 | 0.0 | 0.00 | 0.16 | 0.03 | 92 | 1012.1 |
| 20260504210726 | 49 | 251 | 0.0 | 0.0 | 0.00 | 0.16 | 0.03 | 92 | 1012.2 |
| 20260504210301 | 50 | 250 | 0.0 | 0.0 | 0.00 | 0.16 | 0.03 | 91 | 1012.2 |
| 20260504205726 | 50 | 250 | 0.0 | 0.0 | 0.00 | 0.16 | 0.03 | 91 | 1012.1 |
| 20260504205226 | 50 | 251 | 0.0 | 0.0 | 0.00 | 0.16 | 0.03 | 91 | 1012.1 |
| 20260504204732 | 50 | 251 | 0.0 | 0.0 | 0.00 | 0.16 | 0.03 | 91 | 1012.2 |
| 20260504204231 | 50 | 250 | 0.0 | 0.0 | 0.00 | 0.16 | 0.03 | 90 | 1012.2 |
| 20260504203730 | 51 | 251 | 0.0 | 0.0 | 0.00 | 0.16 | 0.03 | 91 | 1012.4 |
| 20260504203237 | 51 | 251 | 0.0 | 0.0 | 0.00 | 0.16 | 0.03 | 91 | 1012.4 |
| 20260504202736 | 51 | 251 | 0.0 | 0.0 | 0.00 | 0.16 | 0.03 | 91 | 1012.5 |
| 20260504202235 | 51 | 251 | 0.0 | 0.0 | 0.00 | 0.16 | 0.03 | 90 | 1012.5 |
| 20260504201741 | 51 | 251 | 0.0 | 0.0 | 0.00 | 0.16 | 0.03 | 90 | 1012.5 |
| 20260504201306 | 52 | 250 | 0.0 | 0.0 | 0.00 | 0.16 | 0.03 | 90 | 1012.6 |
| 20260504200724 | 52 | 251 | 0.0 | 0.0 | 0.00 | 0.16 | 0.03 | 90 | 1012.6 |
| 20260504200254 | 52 | 251 | 0.0 | 0.0 | 0.00 | 0.16 | 0.03 | 90 | 1012.6 |
| 20260504195746 | 52 | 250 | 0.0 | 0.0 | 0.00 | 0.16 | 0.03 | 89 | 1012.6 |
| 20260504195246 | 52 | 251 | 0.0 | 0.0 | 0.00 | 0.16 | 0.03 | 89 | 1012.6 |
| 20260504194752 | 53 | 219 | 0.0 | 0.0 | 0.00 | 0.16 | 0.03 | 89 | 1012.5 |
| 20260504194231 | 53 | 218 | 0.0 | 0.0 | 0.00 | 0.16 | 0.03 | 88 | 1012.5 |
| 20260504193737 | 53 | 219 | 0.0 | 0.0 | 0.00 | 0.16 | 0.03 | 87 | 1012.5 |
| 20260504193236 | 53 | 293 | 0.0 | 0.0 | 0.00 | 0.16 | 0.03 | 87 | 1012.5 |
| 20260504192721 | 53 | 293 | 0.0 | 0.0 | 0.00 | 0.16 | 0.03 | 87 | 1012.4 |
| 20260504192240 | 53 | 293 | 0.0 | 0.0 | 0.00 | 0.16 | 0.03 | 86 | 1012.5 |
| 20260504191747 | 53 | 252 | 0.0 | 0.0 | 0.00 | 0.16 | 0.03 | 86 | 1012.5 |
| 20260504191224 | 54 | 252 | 0.0 | 0.0 | 0.00 | 0.16 | 0.03 | 86 | 1012.5 |
| 20260504190723 | 54 | 252 | 0.0 | 0.0 | 0.00 | 0.16 | 0.03 | 87 | 1012.6 |
| 20260504190241 | 54 | 285 | 0.0 | 0.0 | 0.00 | 0.16 | 0.03 | 88 | 1012.7 |
| 20260504185727 | 54 | 231 | 0.0 | 0.0 | 0.00 | 0.16 | 0.03 | 88 | 1012.5 |
| 20260504185231 | 54 | 231 | 0.0 | 0.0 | 0.00 | 0.16 | 0.03 | 88 | 1012.6 |
| 20260504184729 | 54 | 231 | 0.0 | 0.0 | 0.00 | 0.16 | 0.03 | 88 | 1012.5 |
| 20260504184256 | 54 | 231 | 0.0 | 0.0 | 0.00 | 0.16 | 0.03 | 88 | 1012.6 |
| 20260504183734 | 54 | 231 | 0.0 | 0.0 | 0.00 | 0.16 | 0.03 | 88 | 1012.6 |
| 20260504183241 | 54 | 231 | 0.0 | 0.0 | 0.00 | 0.16 | 0.03 | 88 | 1012.6 |
| 20260504182741 | 54 | 231 | 0.0 | 0.0 | 0.00 | 0.16 | 0.03 | 89 | 1012.5 |
| 20260504182246 | 54 | 231 | 0.0 | 0.9 | 0.00 | 0.16 | 0.03 | 89 | 1012.5 |
| 20260504181725 | 55 | 226 | 0.0 | 0.9 | 0.00 | 0.16 | 0.03 | 88 | 1012.5 |